Wetterdaten Frühling 2015

Datum T max T min Regen
01.03.2015 10.3 °C 1.3 °C 2.6 mm
02.03.2015 9.8 °C 3.2 °C 3.8 mm
03.03.2015 11.8 °C 1.8 °C 0 mm
04.03.2015 7.4 °C 2 °C 0.6 mm
05.03.2015 7.4 °C 1.8 °C 0 mm
06.03.2015 9.6 °C -2 °C 0 mm
07.03.2015 11.4 °C -1.2 °C 0 mm
08.03.2015 15.8 °C -0.8 °C 0 mm
09.03.2015 16.4 °C -0.7 °C 0 mm
10.03.2015 13.5 °C -1.1 °C 0.8 mm
11.03.2015 9.8 °C -0.7 °C 0.6 mm
12.03.2015 10.6 °C -3.2 °C 0 mm
13.03.2015 7.2 °C -2.8 °C 0 mm
14.03.2015 6.3 °C -1.9 °C 0 mm
15.03.2015 9.7 °C 1.3 °C 0 mm
16.03.2015 16.5 °C -0.6 °C 0 mm
17.03.2015 19.3 °C 1.2 °C 0 mm
18.03.2015 17.3 °C 2.2 °C 0 mm
19.03.2015 16.6 °C 1.1 °C 0 mm
20.03.2015 15.6 °C -0.3 °C 0 mm
21.03.2015 11.8 °C -0.4 °C 0.2 mm
22.03.2015 10 °C 1.6 °C 0 mm
23.03.2015 9.9 °C 1.9 °C 0 mm
24.03.2015 15.8 °C -0.3 °C 0.8 mm
25.03.2015 16.1 °C 1.7 °C 0.2 mm
26.03.2015 9.1 °C 5.3 °C 1 mm
27.03.2015 9.8 °C 5.1 °C 0.6 mm
28.03.2015 13.7 °C 3 °C 0 mm
29.03.2015 12.1 °C 9.3 °C 0.8 mm
30.03.2015 11 °C 5.7 °C 7.8 mm
31.03.2015 13.5 °C 5.2 °C 3.6 mm
01.04.2015 7.7 °C 2.6 °C 4.4 mm
02.04.2015 8.2 °C 2.4 °C 6.4 mm
03.04.2015 11.6 °C -1.9 °C 0 mm
04.04.2015 7 °C 2.7 °C 9.2 mm
05.04.2015 9.1 °C -1.1 °C 0 mm
06.04.2015 9 °C -2.7 °C 0 mm
07.04.2015 11.7 °C -2.6 °C 0 mm
08.04.2015 14.9 °C -0.8 °C 0 mm
09.04.2015 19.1 °C 1.8 °C 0 mm
10.04.2015 21.6 °C 4.7 °C 0 mm
11.04.2015 17.5 °C 9.4 °C 0 mm
12.04.2015 18.4 °C 8.9 °C 0 mm
13.04.2015 18.6 °C 6.3 °C 0 mm
14.04.2015 20.9 °C 5.4 °C 0 mm
15.04.2015 25.6 °C 6.8 °C 0 mm
16.04.2015 22.5 °C 7.1 °C 0 mm
17.04.2015 16.8 °C 8.4 °C 0.8 mm
18.04.2015 13.3 °C 2.6 °C 0 mm
19.04.2015 16.8 °C -0.1 °C 0 mm
20.04.2015 18.9 °C 1.3 °C 0 mm
21.04.2015 21.9 °C 2.7 °C 0 mm
22.04.2015 18.1 °C 3.7 °C 0 mm
23.04.2015 16.2 °C 1.1 °C 0 mm
24.04.2015 20.6 °C 2.8 °C 0 mm
25.04.2015 16.7 °C 6.4 °C 2.4 mm
26.04.2015 20.2 °C 11 °C 0.6 mm
27.04.2015 19.9 °C 10.1 °C 7.2 mm
28.04.2015 13.2 °C 6 °C 4.2 mm
29.04.2015 16.1 °C 2.5 °C 0 mm
30.04.2015 17.1 °C 8.2 °C 0 mm
01.05.2015 10.4 °C 8.3 °C 12 mm
02.05.2015 14.3 °C 7.8 °C 0.8 mm
03.05.2015 17.4 °C 11.2 °C 10.6 mm
04.05.2015 23.1 °C 13.2 °C 0.2 mm
05.05.2015 22.4 °C 16.1 °C 0 mm
06.05.2015 18.7 °C 12.3 °C 0.8 mm
07.05.2015 18.4 °C 9.5 °C 0 mm
08.05.2015 22.4 °C 8.2 °C 0 mm
09.05.2015 20.3 °C 13.7 °C 0 mm
10.05.2015 21.5 °C 12.5 °C 0 mm
11.05.2015 26.3 °C 8.9 °C 0 mm
12.05.2015 28.8 °C 11.2 °C 0 mm
13.05.2015 23.4 °C 11.4 °C 0.6 mm
14.05.2015 19.1 °C 12.1 °C 0 mm
15.05.2015 18.1 °C 9.4 °C 8.2 mm
16.05.2015 19.6 °C 7.8 °C 0 mm
17.05.2015 18.8 °C 10.4 °C 0.2 mm
18.05.2015 22.8 °C 8.2 °C 0 mm
19.05.2015 15.7 °C 11.7 °C 0 mm
20.05.2015 14 °C 7.5 °C 3 mm
21.05.2015 16.8 °C 6.4 °C 0 mm
22.05.2015 19.6 °C 3.6 °C 0 mm
23.05.2015 19.1 °C 5.7 °C 0 mm
24.05.2015 19.8 °C 12.6 °C 0 mm
25.05.2015 20 °C 12.3 °C 0.4 mm
26.05.2015 14.8 °C 10.1 °C 0 mm
27.05.2015 15.3 °C 1.6 °C 0 mm
28.05.2015 21.6 °C 3.9 °C 0 mm
29.05.2015 20.3 °C 13.3 °C 1.6 mm
30.05.2015 17.2 °C 10.9 °C 2.6 mm
31.05.2015 22.4 °C 7.9 °C 0 mm
 Hinweis zur Datenqualität
∅ Temperatur

10.4 °C

Abweichung vom Mittel

+0.3 °C

Niederschlag

99.6 mm

Abweichung vom Mittel

57 %

28.8 °C

Lufttemperatur
12.05.2015

1038 hPa

Luftdruck
06.03.2015

38.5 km/h

Windböen
30.03.2015

99.6 mm

Niederschlag
 

-3.2 °C

Lufttemperatur
12.03.2015

-2.2 °C

Bodentemperatur 5cm
12.03.2015

999 hPa

Luftdruck
31.03.2015
 Hinweis zur Datenqualität